www.pogodaiklimat.ru

Погода и климат >> Архив погоды >> Россия >> Оренбургская область >> Оренбург


АРХИВ ПОГОДЫ в Оренбурге

Время (UTC), дата Ветер
(напр.,м/с)
 
Видим.   Явления Облачность Т
(С)
Тd
(С)
f
(%)
Тe
(С)
Тes
(С)
Комфортность P
(гПа)
Po
(гПа)
Тmin
(С)
Tmax
(С)
R
(мм)
R24
(мм)
S
(см)
18 10.11 СВ 1 20 км 3/0
[Ac trans]
-1.6 -4.4 81 -4 -4 по сезону 1031.3 1016.2
21 10.11 ЮВ 2 20 км ясно -4.3 -5.5 91 -9 -9 по сезону 1031.2 1016.0
00 11.11 ЮВ 1 20 км ясно -4.9 -6.1 91 -7 -7 по сезону 1031.3 1016.0
03 11.11 В 3 20 км 4/0
[Ci sp]
-5.6 -6.6 93 -11 -11 прохладно 1031.0 1015.6 -5.8
06 11.11 В 3 20 км 10/0
[Ac lent Ci]
-2.8 -3.9 92 -8 -8 по сезону 1030.5 1015.4
09 11.11 В 3 20 км 9/3 1000 м
[Cu hum Ac trans]
+0.7 -2.1 82 -4 -3 по сезону 1029.2 1014.3
12 11.11 В 3 20 км 4/1 1000 м
[Cu hum Ci]
+1.0 -2.3 79 -3 -3 по сезону 1028.2 1013.3
15 11.11 В 2 20 км ясно -2.1 -3.3 91 -6 -6 по сезону 1027.8 1012.7 +1.8
18 11.11 В 3 20 км ясно -3.3 -4.1 94 -9 -9 по сезону 1027.0 1011.9
21 11.11 В 3 20 км 9/0
[Ac trans]
-3.5 -4.3 94 -9 -9 по сезону 1026.2 1011.1
00 12.11 В 2 20 км 9/0
[Ac trans]
-2.7 -3.6 94 -7 -7 по сезону 1024.9 1009.8
03 12.11 В 3 20 км 10/10 1080 м
[Sc]
-1.9 -2.7 94 -7 -7 по сезону 1023.7 1008.7 -3.9
06 12.11 В 1 20 км 9/4 1000 м
[Sc Ac trans Ci fib]
+0.4 -0.6 93 -2 -1 по сезону 1023.8 1008.9
09 12.11 ЮВ 1 20 км 8/3 1000 м
[Sc Ac trans Ci fib]
+4.4 -0.2 72 +3 +4 тепло 1022.7 1008.1
12 12.11 ЮВ 1 20 км 10/10 1410 м
[Sc]
+4.3 -0.2 73 +3 +3 тепло 1021.9 1007.3
15 12.11 Ю 1 20 км 10/10 1470 м
[Sc]
+2.7 -0.5 79 +1 +1 тепло 1022.0 1007.3 +4.7
18 12.11 ЮВ 1 20 км 9/9 1350 м
[Sc]
+1.3 -0.2 90 -1 -1 тепло 1022.1 1007.3
21 12.11 ЮВ 1 20 км 9/9 1410 м
[Sc]
+0.7 -0.2 94 -1 -1 тепло 1022.0 1007.2
00 13.11 В 2 20 км {дождь} 10/10 1470 м
[Sc]
+0.6 -0.3 94 -3 -3 по сезону 1022.2 1007.4
03 13.11 В 2 10 км слабый дождь 10/10 1110 м
[Sc]
+0.1 -1.2 91 -4 -4 по сезону 1022.6 1007.8 0.0 0.0
06 13.11 В 2 20 км {дождь} 10/9 1000 м
[Sc Ac trans]
+0.3 -1.1 90 -3 -3 по сезону 1023.5 1008.7 -0.2
09 13.11 Ю 2 20 км 10/0
[Ac As]
+4.3 +1.3 81 +2 +2 тепло 1022.7 1008.1
12 13.11 Ю 3 20 км 8/8 1000 м
[Sc Ac trans]
+4.6 +1.6 81 +1 +1 тепло 1022.2 1007.6
15 13.11 Ю 4 20 км 10/10 600 м
[Sc]
+4.0 +1.7 85 -0 -0 тепло 1021.6 1007.0 +6.1
18 13.11 Ю 5 10 км слабый дождь 10/10 630 м
[Sc]
+3.9 +2.9 93 -1 -1 тепло 1020.6 1005.9
21 13.11 ЮЗ 6
{11}
10 км слабый дождь 10/10 330 м
[Frnb Ns]
+5.3 +4.0 91 0 0 тепло 1019.4 1004.9
00 14.11 З 4
{12}
10 км слабый дождь 10/10 700 м
[Frnb Ns]
+5.3 +4.4 94 +1 +1 тепло 1019.5 1004.9
03 14.11 З 4 20 км {дождь} 9/9 630 м
[Sc]
+3.1 +1.9 92 -2 -2 тепло 1021.2 1006.5 +3.1 3
06 14.11 З 4 20 км {дождь} 10/10 800 м
[Sc]
+3.7 +2.6 93 -1 -1 тепло 1022.7 1008.1
09 14.11 З 5 20 км 10/10 1000 м
[Sc]
+5.2 +3.6 89 +1 +1 тепло 1023.4 1008.8
12 14.11 ЮЗ 4 20 км 10/10 1000 м
[Sc]
+5.1 +3.7 91 +1 +1 тепло 1024.3 1009.7
15 14.11 ЮЗ 2 20 км 10/10 1050 м
[Sc]
+4.1 +2.9 92 +1 +1 тепло 1025.1 1010.4 +5.6
18 14.11 ЮЗ 2 20 км 10/10 1000 м
[Sc]
+3.4 +1.8 89 0 0 тепло 1025.3 1010.6
21 14.11 Ю 2 20 км 10/10 800 м
[Sc]
+3.4 +1.6 88 0 0 тепло 1025.2 1010.5
00 15.11 Ю 3 20 км 10/10 700 м
[Sc]
+2.8 +1.1 89 -1 -1 тепло 1025.1 1010.4
03 15.11 ЮВ 4 10 км слабый дождь 10/10 500 м
[Frnb]
+3.8 +2.4 91 -1 -1 тепло 1024.2 1009.5 +2.3 0.0
06 15.11 Ю 5 4000 м дымка {дождь} 10/10 330 м
[Frnb]
+5.6 +4.3 91 +1 +1 тепло 1024.0 1009.4
09 15.11 ЮЗ 6
{11}
20 км {дождь} 10/10 800 м
[Sc]
+5.1 +2.9 86 0 0 тепло 1023.9 1009.3
12 15.11 ЮЗ 5
{11}
10 км слабый дождь 10/10 300 м
[Frnb]
+5.0 +4.3 95 0 0 тепло 1023.5 1008.9
15 15.11 Ю 5 20 км {дождь} 10/10 300 м
[Frnb]
+4.6 +3.8 95 -0 -0 тепло 1023.4 1008.7 +5.8 0.4
18 15.11 Ю 4 20 км {дождь} 10/10 270 м
[St]
+4.2 +2.7 90 -0 -0 тепло 1022.8 1008.1
21 15.11 Ю 6-11
{11}
20 км 10/10 330 м
[St]
+5.4 +4.0 91 0 0 тепло 1020.8 1006.2
00 16.11 Ю 6
{12}
20 км 10/10 360 м
[Frnb]
+5.1 +3.7 91 -0 -0 тепло 1019.0 1004.5
03 16.11 Ю 6-12
{13}
4000 м дождь 10/10 360 м
[Frnb Ns]
+4.5 +3.5 93 -1 -1 тепло 1017.4 1002.9 +4.1 2
06 16.11 ЮЗ 5
{12}
4000 м слабый дождь 10/10 240 м
[Frnb Ns]
+4.7 +3.2 90 -0 -0 тепло 1017.4 1002.8
09 16.11 СЗ 5
{10}
20 км в посл. час морось {дождь} 10/10 420 м
[St]
+3.8 +2.6 92 -1 -1 тепло 1018.5 1003.9
12 16.11 СЗ 5 20 км {дождь, морось} 10/10 630 м
[Sc]
+2.0 +0.2 88 -4 -4 по сезону 1021.0 1006.3
15 16.11 СЗ 4 20 км {дождь} 10/10 1000 м
[Sc]
+1.1 -3.3 72 -4 -4 по сезону 1022.7 1007.9 +5.5 5
18 16.11 ЮЗ 2 20 км {дождь} 3/3 1000 м
[Sc]
-1.6 -3.7 86 -5 -5 по сезону 1022.6 1007.7
21 16.11 ЮЗ 3 20 км 3/3 1000 м
[Sc]
-2.4 -4.1 88 -8 -8 по сезону 1022.2 1007.2
00 17.11 Ю 4 20 км 4/3 1000 м
[Sc Ci fib]
-2.3 -4.0 88 -8 -8 по сезону 1021.5 1006.5
03 17.11 Ю 4 10 км слабый снег 10/0
[As op]
-1.6 -3.2 89 -7 -7 по сезону 1019.8 1004.9 -3.0 0.0
06 17.11 ЮЗ 5 4000 м слабый снег 10/10 540 м
[Frnb]
-0.1 -1.9 88 -6 -6 по сезону 1019.5 1004.7
09 17.11 З 5
{11}
20 км в посл. час снег 10/10 330 м
[Frnb]
+0.2 -1.1 91 -6 -6 по сезону 1019.5 1004.6
12 17.11 З 4 20 км {снег} 10/10 330 м
[Frnb]
+0.6 -0.4 93 -5 -5 по сезону 1020.0 1005.2
15 17.11 З 4 4000 м слабый снег 10/10 300 м
[Frnb]
+0.7 -0.7 90 -5 -5 по сезону 1021.1 1006.3 +0.9 0.1

 

Местоположение метеостанции Оренбург (Оренбургская область, Россия): широта 51.68 долгота 55.10 высота над уровнем моря 117 м.

В архиве по умолчанию представлена погода в Оренбурге за последнюю неделю. Архивные данные за месяц целиком и за предыдущие месяцы, начиная с января 2011 года, Вы можете получить, выбрав интересующий диапазон дат из раскрывающегося списка и нажав кнопку "Ввод!".

Внимание! Время в таблицах - всемирное. Для получения местного времени необходимо прибавить поправку, которая в Оренбурге равна 5 ч.

Смотрите также архив погоды в соседних городах и на ближайших метеорологических станциях:

Погода в Соль-Илецк (Оренбургская область, Россия) (59 км)
Погода в Акбулаке (Оренбургская область, Россия) (82 км)
Погода в Беляевке (Оренбургская область, Россия) (96 км)
Погода в Чингирлау (Западно-Казахстанская область, Казахстан) (96 км)
Погода в Новосергиевке (Оренбургская область, Россия) (110 км)
Погода в Троицком Т (Оренбургская область, Россия) (113 км)
Погода в Илеке (Оренбургская область, Россия) (121 км)
Погода в Кумертау (Башкирия, Россия) (129 км)
Погода в Шарлыке (Оренбургская область, Россия) (141 км)
Погода в Мартуке (Актюбинская область, Казахстан) (144 км)

Пояснения к столбцам:

Ветер - указаны скорость ветра в м/с - средняя за 10 мин, порывы в срок и между сроками (в фигурных скобках) и направление, откуда дует ветер: С - северный, СВ - северо-восточный, В - восточный, ЮВ - юго-восточный, Ю - южный, ЮЗ - юго-западный, З - западный, СЗ - северо-западный.
Видимость - горизонтальная дальность видимости в метрах или километрах. При видимости от 1 до 10 км при отсутствии осадков обычно наблюдается дымка, при ухудшении видимости до 1 км и менее - туман. В сухую погоду видимость может ухудшаться дымом, пылью или мглою.
Явления - указаны атмосферные явления, наблюдавшиеся в срок или в последний час перед сроком; фигурными скобками обозначены явления, наблюдавшиеся между сроками (за 1-3 часа до срока); квадратными скобками обозначены град или гололедные отложения с указанием их диаметра в мм.
Облачность - указаны через наклонную черту общая и нижняя облачность в баллах и высота нижней границы облаков в метрах; квадратными скобками обозначены формы облаков: Ci - перистые, Cs - перисто-слоистые, Cc - перисто-кучевые, Ac - высококучевые, As - высокослоистые, Sc - слоисто-кучевые, Ns - слоисто-дождевые, Cu - кучевые, Cb - кучево-дождевые. Подробнее классификацию облаков см. в Атласе облаков (PDF).
T - Температура воздуха - температура, измеренная на высоте 2 м над землей.
Td - Температура точки росы - температура, при понижении до которой содержащийся в воздухе водяной пар достигнет насыщения.
f - Относительная влажность воздуха - влажноcть воздуха, измеренная на высоте 2 м над землей.
Te - Эффективная температура - температура, которую ощущает одетый по сезону человек в тени. Характеристика душности погоды. При расчете учитывается влияние влажности воздуха и скорости ветра на теплоощущения человека.
Tes - Эффективная температура на солнце - температура, которую ощущает человек, с поправкой на солнечный нагрев. Характеристика знойности погоды. Зависит от высоты солнца над горизонтом, облачности и скорости ветра. Ночью, в пасмурную погоду, а также при ветре 12 м/с и более поправка равна нулю.
P - Атмосферное давление - приведенное к уровню моря атмосферное давление.
Po - Атмосферное давление - измеренное на уровне метеостанции атмосферное давление.
Tmin - Минимальная температура - минимум температуры воздуха на высоте 2 м над землей.
Tmax - Максимальная температура - максимум температуры воздуха на высоте 2 м над землей.
R - Количество осадков - Количество выпавших осадков за период времени, мм. При наведении курсора мыши на число - период времени, за который выпало указанное количество осадков.
R24 - Количество осадков - Количество выпавших осадков за 24 часа, мм.
S - Снежный покров - Высота снежного покрова, см. При наведении курсора мыши на число - состояние снежного покрова и степень покрытия местности в баллах.